D2913 Weather Reports


Display with metric or nautical units.
time (UTC)temp
F
wind
direction
speed
MPH
gust
MPH
rain 1hr
in
rain 24hr
in
rain mn
in
humidity
%
barometer
mb
20260505073516 59 0 0.0 0.0 0.01 0.10 0.04 91 1008.1
20260505073016 58 0 0.0 0.0 0.01 0.10 0.04 91 1008.1
20260505072516 58 0 0.0 0.0 0.01 0.10 0.04 91 1008.2
20260505072016 58 0 0.0 0.0 0.01 0.10 0.04 91 1008.3
20260505071516 57 0 0.0 0.0 0.01 0.10 0.04 90 1008.2
20260505070516 57 0 0.0 0.0 0.01 0.10 0.04 89 1008.1
20260505070017 56 0 0.0 0.0 0.01 0.10 0.04 89 1008.2
20260505065517 56 0 0.0 0.0 0.01 0.10 0.04 88 1008.1
20260505065016 55 0 0.0 0.0 0.00 0.09 0.03 86 1008.1
20260505064516 54 0 0.0 0.0 0.00 0.09 0.03 85 1008.1
20260505064016 54 0 0.0 0.0 0.00 0.09 0.03 81 1007.9
20260505063516 53 0 0.0 0.0 0.00 0.09 0.03 77 1007.7
20260505063016 52 0 0.0 0.0 0.00 0.09 0.03 73 1007.7
20260505062516 52 0 0.0 0.0 0.00 0.09 0.03 70 1007.7
20260505062016 51 0 0.0 0.0 0.00 0.09 0.03 69 1007.6
20260505061517 51 0 0.0 0.0 0.00 0.09 0.03 67 1007.7
20260505061017 51 0 0.0 0.0 0.00 0.09 0.03 67 1007.5
20260505060516 50 0 0.0 0.0 0.00 0.09 0.03 66 1007.4
20260505055516 50 0 0.0 0.0 0.00 0.09 0.03 66 1007.4
20260505055016 49 0 0.0 0.0 0.00 0.09 0.03 66 1007.4
20260505054516 49 0 0.0 0.0 0.00 0.09 0.03 66 1007.3
20260505054016 48 0 0.0 0.0 0.00 0.09 0.03 66 1007.2
20260505053517 47 0 0.0 0.0 0.00 0.09 0.03 66 1006.9
20260505052544 46 0 0.0 0.0 0.00 0.09 0.03 67 1006.6
20260505052016 46 0 0.0 0.0 0.01 0.09 0.03 67 1006.6
20260505051516 45 0 0.0 0.0 0.01 0.09 0.03 68 1006.6
20260505051016 44 0 0.0 0.0 0.01 0.09 0.03 68 1006.6
20260505050516 44 0 0.0 0.0 0.01 0.09 0.03 68 1006.7
20260505041016 42 0 0.0 0.0 0.00 0.09 0.02 71 1006.5
20260505040517 42 0 0.0 0.0 0.00 0.09 0.02 71 1006.5
20260505040017 42 0 0.0 0.0 0.00 0.09 0.02 71 1006.6
20260505035516 43 0 0.0 0.0 0.00 0.09 0.02 71 1006.6
20260505035017 43 0 0.0 0.0 0.00 0.09 0.02 71 1006.7
20260505034516 43 0 0.0 0.0 0.00 0.09 0.02 70 1006.6
20260505034016 43 0 0.0 0.0 0.00 0.09 0.02 70 1006.6
20260505033516 43 0 0.0 0.0 0.00 0.09 0.02 71 1006.7
20260505033017 44 0 0.0 0.0 0.00 0.09 0.02 70 1006.8
20260505032516 43 0 0.0 0.0 0.00 0.09 0.02 71 1006.7
20260505032016 43 0 0.0 0.0 0.00 0.09 0.02 71 1006.6
20260505031520 43 0 0.0 0.0 0.00 0.09 0.02 72 1006.7
20260505030017 44 0 0.0 0.0 0.01 0.09 0.02 71 1006.9
20260505025016 44 0 0.0 0.0 0.01 0.09 0.02 71 1007.2
20260505024016 44 0 0.0 0.0 0.01 0.09 0.02 70 1007.2
20260505023516 44 0 0.0 0.0 0.01 0.09 0.02 71 1007.3
20260505023017 44 0 0.0 0.0 0.01 0.09 0.02 72 1007.4
20260505022517 44 0 0.0 0.0 0.01 0.09 0.02 72 1007.4
20260505022016 44 0 0.0 0.0 0.01 0.09 0.02 73 1007.5
20260505021016 45 0 0.0 0.0 0.01 0.09 0.02 73 1007.7
20260505020516 45 0 0.0 0.0 0.00 0.08 0.02 72 1007.8
20260505020016 45 0 0.0 0.0 0.00 0.08 0.02 72 1007.7
20260505015516 45 0 0.0 0.0 0.00 0.08 0.02 72 1007.7
20260505015016 46 0 0.0 0.0 0.00 0.08 0.02 71 1007.8
20260505014516 46 0 0.0 0.0 0.00 0.08 0.02 72 1007.7
20260505014016 46 0 0.0 0.0 0.00 0.08 0.02 73 1007.7
20260505013517 46 0 0.0 0.0 0.01 0.08 0.02 74 1007.7
20260505013016 46 0 0.0 0.0 0.01 0.08 0.02 74 1007.9
20260505012516 46 0 0.0 0.0 0.01 0.08 0.02 73 1007.8
20260505012017 47 0 0.0 0.0 0.01 0.08 0.02 73 1008.1
20260505011532 47 0 0.0 0.0 0.01 0.08 0.02 73 1008.0
20260505011016 47 0 0.0 0.0 0.01 0.08 0.02 73 1008.0
20260505010517 47 0 0.0 0.0 0.01 0.08 0.02 73 1008.0
20260505010016 47 0 0.0 0.0 0.01 0.08 0.02 73 1008.0
20260505005516 47 0 0.0 0.0 0.01 0.08 0.02 73 1008.0
20260505004517 47 0 0.0 0.0 0.01 0.08 0.02 75 1008.2
20260505004017 48 0 0.0 0.0 0.01 0.08 0.02 76 1008.2
20260505003017 48 0 0.0 0.0 0.00 0.07 0.01 74 1008.5
20260505002516 48 0 0.0 0.0 0.00 0.07 0.01 74 1008.4
20260505002016 48 0 0.0 0.0 0.00 0.07 0.01 75 1008.4
20260505001517 48 0 0.0 0.0 0.00 0.07 0.01 75 1008.4
20260505001016 49 0 0.0 0.0 0.01 0.07 0.01 75 1008.4
20260505000517 49 0 0.0 0.0 0.01 0.07 0.01 76 1008.4
20260505000016 49 0 0.0 0.0 0.01 0.07 0.01 77 1008.6
20260504235517 49 0 0.0 0.0 0.01 0.07 0.01 77 1008.8
20260504235016 49 0 0.0 0.0 0.01 0.07 0.01 78 1008.9
20260504234017 49 0 0.0 0.0 0.01 0.07 0.01 77 1008.9
20260504233517 50 0 0.0 0.0 0.01 0.07 0.01 78 1009.1
20260504233016 50 0 0.0 0.0 0.01 0.07 0.01 79 1009.1
20260504232537 50 0 0.0 0.0 0.01 0.07 0.01 79 1009.1
20260504232016 50 0 0.0 0.0 0.01 0.07 0.01 79 1009.2
20260504231517 50 0 0.0 0.0 0.01 0.07 0.01 81 1009.2
20260504231017 51 0 0.0 0.0 0.00 0.06 0.00 82 1009.3
20260504230517 51 0 0.0 0.0 0.00 0.06 0.00 83 1009.3
20260504230016 51 0 0.0 0.0 0.00 0.06 0.00 83 1009.4
20260504225516 52 0 0.0 0.0 0.00 0.06 0.00 83 1009.5
20260504224516 52 0 0.0 0.0 0.01 0.06 0.00 80 1009.6
20260504224016 52 0 0.0 0.0 0.01 0.06 0.00 81 1009.6
20260504223516 52 0 0.0 0.0 0.01 0.06 0.00 81 1009.7
20260504223016 52 0 0.0 0.0 0.01 0.06 0.00 81 1009.8
20260504222516 52 0 0.0 0.0 0.01 0.06 0.00 81 1009.7
20260504221517 53 0 0.0 0.0 0.01 0.06 0.00 81 1009.8
20260504220517 53 0 0.0 0.0 0.01 0.06 0.00 81 1009.8
20260504220016 53 0 0.0 0.0 0.01 0.06 0.06 82 1009.9
20260504215516 53 0 0.0 0.0 0.01 0.06 0.06 82 1009.9
20260504215017 53 0 0.0 0.0 0.00 0.06 0.06 84 1010.0
20260504214516 54 0 0.0 0.0 0.00 0.06 0.06 84 1009.9
20260504214017 54 0 0.0 0.0 0.00 0.06 0.06 84 1009.9
20260504213517 54 0 0.0 0.0 0.01 0.06 0.06 85 1009.9
20260504213016 54 0 0.0 0.0 0.01 0.06 0.06 86 1010.0
20260504212516 55 0 0.0 0.0 0.01 0.06 0.06 87 1010.1
20260504212016 55 0 0.0 0.0 0.01 0.06 0.06 88 1010.1
20260504211516 56 0 0.0 0.0 0.01 0.06 0.06 88 1010.2
20260504211017 56 0 0.0 0.0 0.01 0.06 0.06 89 1010.3
20260504210516 56 0 0.0 0.0 0.01 0.06 0.06 89 1010.3
20260504210016 56 0 0.0 0.0 0.01 0.06 0.06 89 1010.2
20260504205516 56 0 0.0 0.0 0.01 0.06 0.06 89 1010.3
20260504204517 56 0 0.0 0.0 0.01 0.06 0.06 88 1010.3
20260504204017 56 0 0.0 0.0 0.01 0.06 0.06 88 1010.3
20260504203538 56 0 0.0 0.0 0.00 0.05 0.05 87 1010.2
20260504203017 56 0 0.0 0.0 0.00 0.05 0.05 86 1010.2
20260504202516 56 0 0.0 0.0 0.01 0.05 0.05 86 1010.3
20260504202016 56 0 0.0 0.0 0.01 0.05 0.05 86 1010.6
20260504201516 56 0 0.0 0.0 0.01 0.05 0.05 86 1010.8
20260504201017 56 0 0.0 0.0 0.01 0.05 0.05 86 1010.8
20260504200516 56 0 0.0 0.0 0.01 0.05 0.05 86 1010.9
20260504200016 56 0 0.0 0.0 0.02 0.05 0.05 87 1011.0
20260504195516 56 0 0.0 0.0 0.02 0.05 0.05 87 1011.0
20260504195016 56 0 0.0 0.0 0.02 0.05 0.05 87 1011.0
20260504194517 56 0 0.0 0.0 0.02 0.05 0.05 88 1011.1
20260504194016 57 0 0.0 0.0 0.02 0.05 0.05 88 1011.1
20260504193517 57 0 0.0 0.0 0.02 0.05 0.05 89 1011.2
20260504192516 57 0 0.0 0.0 0.02 0.04 0.04 90 1011.6
20260504192016 58 0 0.0 0.0 0.02 0.04 0.04 90 1011.7
20260504191516 58 0 0.0 0.0 0.04 0.04 0.04 90 1011.8
20260504191016 58 0 0.0 0.0 0.04 0.04 0.04 90 1011.7
20260504190516 59 0 0.0 0.0 0.04 0.04 0.04 90 1012.0
20260504190017 59 0 0.0 0.0 0.03 0.03 0.03 90 1011.9
20260504185516 59 0 0.0 0.0 0.03 0.03 0.03 90 1011.7
20260504185016 60 0 0.0 0.0 0.03 0.03 0.03 90 1011.6
20260504184516 60 0 0.0 0.0 0.03 0.03 0.03 89 1011.6
20260504184016 61 0 0.0 0.0 0.02 0.02 0.02 88 1011.5
20260504183517 62 0 0.0 0.0 0.02 0.02 0.02 86 1011.5
20260504183016 63 0 0.0 0.0 0.02 0.02 0.02 84 1011.2
20260504182516 65 0 0.0 0.0 0.02 0.02 0.02 82 1011.3
20260504182017 67 0 0.0 0.0 0.00 0.00 0.00 82 1011.7
20260504181517 68 0 0.0 0.0 0.00 0.00 0.00 79 1011.4
20260504181016 69 0 0.0 0.0 0.00 0.00 0.00 79 1011.4
20260504180516 69 0 0.0 0.0 0.00 0.00 0.00 78 1011.3
20260504180017 69 0 0.0 0.0 0.00 0.00 0.00 78 1011.4
20260504175516 69 0 0.0 0.0 0.00 0.00 0.00 78 1011.4
20260504175016 69 0 0.0 0.0 0.00 0.00 0.00 78 1011.3
20260504174516 69 0 0.0 0.0 0.00 0.00 0.00 78 1011.4
20260504174016 70 0 0.0 0.0 0.00 0.00 0.00 78 1011.4
20260504173516 70 0 0.0 0.0 0.00 0.00 0.00 77 1011.4
20260504173017 71 0 0.0 0.0 0.00 0.00 0.00 77 1011.6
20260504172545 71 0 0.0 0.0 0.00 0.00 0.00 77 1011.6
20260504172017 71 0 0.0 0.0 0.00 0.00 0.00 77 1011.6
20260504151017 73 0 0.0 0.0 0.00 0.00 0.00 73 1011.9
20260504150516 74 0 0.0 0.0 0.00 0.00 0.00 73 1012.0
20260504141017 73 0 0.0 0.0 0.00 0.00 0.00 74 1012.3
20260504140516 74 0 0.0 0.0 0.00 0.00 0.00 73 1012.4
20260504130516 74 0 0.0 0.0 0.00 0.00 0.00 74 1012.9
20260504100517 69 0 0.0 0.0 0.00 0.00 0.00 76 1013.9
20260504081016 67 0 0.0 0.0 0.00 0.00 0.00 79 1014.7
20260504080517 66 0 0.0 0.0 0.00 0.00 0.00 78 1014.6